Location: Kershaw
(34.5481°N, 80.5823°W)
Time: 17:15:51
(UTC+00:00)

Transit 2A - Pass Details

Date: 03 October 2022
Orbit: 598 x 959 km, 66.7° (Epoch: 06 December)

Event Time Altitude Azimuth Distance (km) Brightness Sun altitude
Rises 03:49:31 0° 205° (SSW) 2,983 - -54.0°
Reaches altitude 10° 03:51:52 10° 206° (SSW) 2,031 - -54.2°
Maximum altitude 03:56:24 88° 292° (WNW) 619 - -54.8°
Drops below altitude 10° 04:00:45 10° 26° (NNE) 1,944 - -55.3°
Sets 04:02:57 0° 27° (NNE) 2,844 - -55.5°
